FOSSASAT-2E12 (52773 NORAD) Tracking and Keplerian Element Data

This shows tracking and keplerian element data for the satellite.

Feedback or suggestion? Click here.




ElementValue
Catalog52773
NameFOSSASAT-2E12
Epoch Orbit712
Epoch Day192.83061375
Epoch Year2022
RAAN307.2491
Inclination97.5244
Eccentricity0.0013384
Argument of Perigee80.425
Mean Anonmoly279.8492
Mean Motion15.13696408
Decay Rate0.00011004
L11 52773U 22057AT 22192.83061375 .00011004 00000+0 61320-3 0 9999
L22 52773 97.5244 307.2491 0013384 80.4250 279.8492 15.13696408 7125

Live tracking and technical data element details for FOSSASAT-2E12 (NORAD 52773). FOSSASAT-2E12 can be tracked NOW for your location showing map with azimuth and elevation plus other details from your city location.

Track the satellite on the map from your city or location and see movement details for azimuth, elevation, latitude, longitude, range, height, and movement on the map or in text.







IsCatalogInMostPopularTable: catalog: 52773, numindb: 2
Update: records affected: 1



GetName: 52773 FOSSASAT-2E12

Hit Count: updated at: Sun, 14 Aug 2022 00:48:12 GMT